Regional Weather Roundup
Issued by NWS

Home | Current Version | Previous Version | Graphics & Text | Print | Product List | Glossary On
Versions: 1 2 3 4 5 6 7 8 9 10 11 12 13 14 15 16 17 18 19 20 21 22 23 24 25 26 27 28 29 30 31 32 33 34 35 36 37 38 39 40 41 42 43 44 45 46 47 48 49 50
000
ASUS43 KMKX 200600
RWRWI

WISCONSIN REGIONAL WEATHER ROUNDUP
NATIONAL WEATHER SERVICE MILWAUKEE/SULLIVAN WI
1200 AM CST SAT DEC 20 2014

NOTE: "FAIR" INDICATES FEW OR NO CLOUDS BELOW 12,000 FEET WITH NO
SIGNIFICANT WEATHER AND/OR OBSTRUCTIONS TO VISIBILITY.

WIZ001-002-006>008-014>016-023>028-200700-
NORTHWEST WISCONSIN

CITY           SKY/WX    TMP DP  RH WIND       PRES   REMARKS
SUPERIOR ARPT  CLOUDY    27  24  89 S3        30.18F
ASHLAND        CLOUDY    26  22  84 S5        30.20F WCI  20
6HR MIN TEMP:  25; 6HR MAX TEMP:  26;

HAYWARD        CLOUDY    25  21  85 S5        30.17F WCI  19
6HR MIN TEMP:  25; 6HR MAX TEMP:  25;

SIREN          CLOUDY    27  23  83 S8        30.17F WCI  19
CUMBERLAND     CLOUDY    27  23  86 SE8       30.17S WCI  18
RICE LAKE      CLOUDY    27  22  83 SE6       30.20S WCI  20
6HR MIN TEMP:  26; 6HR MAX TEMP:  27;

CHETEK         CLOUDY    26  22  85 SE6       30.19F WCI  20
LADYSMITH      CLOUDY    26  23  89 SE5       30.21S WCI  20
EAU CLAIRE     NOT AVBL
MENOMONIE      CLOUDY    28  24  82 SE5       30.20F WCI  23
NEW RICHMOND   CLOUDY    28  25  88 S8        30.18S WCI  20
OSCEOLA        CLOUDY    28  25  86 SE8       30.20F WCI  20
$$

WIZ003>005-009-010-017-018-200700-
NORTH CENTRAL WISCONSIN

CITY           SKY/WX    TMP DP  RH WIND       PRES   REMARKS
MANITOWISH WTR CLOUDY    21  21  99 S3        30.18S
ARBOR VITAE    CLOUDY    23  21  91 S3        30.17F
WOODRUFF       CLOUDY    23  21  91 S3        30.17F
RHINELANDER    CLOUDY    20  18  92 CALM      30.18F
6HR MIN TEMP:  18; 6HR MAX TEMP:  21;

EAGLE RIVER    CLOUDY    18  18  97 CALM      30.18S
LAND O LAKES   CLOUDY    14  12  92 CALM      30.19S
PHILLIPS       CLOUDY    23  21  93 S3        30.17F
6HR MIN TEMP:  22; 6HR MAX TEMP:  23;

TOMAHAWK       CLOUDY    22  20  91 CALM      30.19F
MEDFORD        CLOUDY    22  20  91 SE7       30.19S WCI  14
MERRILL        CLOUDY    23  21  91 CALM      30.21S
$$

WIZ029-030-035-036-043>047-200700-
CENTRAL WISCONSIN

CITY           SKY/WX    TMP DP  RH WIND       PRES   REMARKS
WAUSAU         CLOUDY    23  20  88 S3        30.20F
6HR MIN TEMP:  22; 6HR MAX TEMP:  24;

MOSINEE        CLOUDY    23  23 100 S3        30.23S
MARSHFIELD     CLOUDY    24  20  84 S8        30.21F WCI  15
6HR MIN TEMP:  23; 6HR MAX TEMP:  24;

STEVENS POINT  CLOUDY    22  19  89 CALM      30.24S
WAUPACA        CLOUDY    27  22  79 W3        30.26S
WAUTOMA        NOT AVBL
WISC RAPIDS    CLOUDY    22  18  85 S3        30.26R
6HR MIN TEMP:  22; 6HR MAX TEMP:  24;

CAMP DOUGLAS   NOT AVBL
$$

WIZ011>013-019>022-031-037>040-048>050-200700-
NORTHEAST WISCONSIN

CITY           SKY/WX    TMP DP  RH WIND       PRES   REMARKS
ANTIGO         PTCLDY    15  13  95 CALM      30.20S
SHAWANO        PTCLDY    19  16  89 CALM      30.26S
OCONTO         PTCLDY    15  14  98 CALM      30.27S
STURGEON BAY   PTCLDY    19  16  86 CALM      30.27S
6HR MIN TEMP:  18; 6HR MAX TEMP:  23;

GREEN BAY      PTCLDY    20  18  92 S3        30.27R
6HR MIN TEMP:  20; 6HR MAX TEMP:  27;

MANITOWOC      NOT AVBL
APPLETON         N/A     21  18  86 CALM      30.26R
CLINTONVILLE   PTCLDY    19  18  93 CALM      30.26S
OSHKOSH        PTCLDY    20  17  88 CALM      30.26S
6HR MIN TEMP:  20; 6HR MAX TEMP:  27;

$$

WIZ032>034-041-042-053>061-200700-
SOUTHWEST WISCONSIN

CITY           SKY/WX    TMP DP  RH WIND       PRES   REMARKS
LA CROSSE      CLOUDY    30  22  72 S7        30.24S WCI  23
6HR MIN TEMP:  30; 6HR MAX TEMP:  30;

SPARTA         CLOUDY    28  21  74 CALM      30.25S
VIROQUA        CLOUDY    27  23  84 S6        30.21S WCI  20
BOSCOBEL       CLOUDY    29  22  75 CALM      30.26S
6HR MIN TEMP:  27; 6HR MAX TEMP:  30;

PRAIRIE DU CHI CLOUDY    29  22  76 E3        30.25S
PLATTEVILLE    CLOUDY    27  23  84 CALM      30.24S
$$

WIZ056-057-062-063-064-067-068-200700-
SOUTH CENTRAL WISCONSIN

CITY           SKY/WX    TMP DP  RH WIND       PRES   REMARKS
REEDSBURG      CLOUDY    23  21  92 CALM      30.25S
BARABOO/DELLS  CLOUDY    23  21  90 CALM      30.24F
LONE ROCK      NOT AVBL
MINERAL POINT  CLOUDY    28  25  86 CALM      30.23S
MADISON        CLOUDY    26  21  81 S3        30.26R
6HR MIN TEMP:  23; 6HR MAX TEMP:  27;

MIDDLETON      CLOUDY    27  22  84 CALM      30.26R
WATERTOWN      MOCLDY    20  19  96 CALM      30.26R
MONROE         CLOUDY    27  25  93 SE3       30.24S
JANESVILLE     CLOUDY    28  23  80 CALM      30.26S
$$

WIZ051-052-058>065-066-070>072-200700-
SOUTHEAST WISCONSIN

CITY           SKY/WX    TMP DP  RH WIND       PRES   REMARKS
MILWAUKEE      CLOUDY    28  19  69 SW3       30.26S
6HR MIN TEMP:  27; 6HR MAX TEMP:  29;

WAUKESHA       CLOUDY    23  21  93 CALM      30.27R
MILWAUKEE/TIMM CLOUDY    27  21  80 CALM      30.27S
RACINE         CLOUDY    28  20  71 CALM      30.28S
6HR MIN TEMP:  28; 6HR MAX TEMP:  28;

BURLINGTON     CLOUDY    25  20  82 CALM      30.26S
KENOSHA        CLOUDY    27  21  78 CALM      30.26S
6HR MIN TEMP:  27; 6HR MAX TEMP:  28;

FOND DU LAC    PTCLDY    20  16  84 CALM      30.26S
6HR MIN TEMP:  20; 6HR MAX TEMP:  28;

SHEBOYGAN      CLOUDY    28  21  75 NW6       30.26R WCI  22
6HR MIN TEMP:  27; 6HR MAX TEMP:  29;

WEST BEND      CLOUDY    23  19  86 CALM      30.25S
JUNEAU         MOCLDY    21  19  90 CALM      30.26S
$$

LSZ147-162-200700-
LAKE SUPERIOR

STATION/POSITION TIME  TEMP    WIND        PRES    WAVE
                       AIR SEA DIR/SP/G            HT/PER
                 (UTC) (F)     (DEG/KT/KT) (MB)    (FT/S)
DEVILS ISLAND    0500   27     170/  5/  8 1023.8F
PORT WING        0500   27     200/  3/  5 1022.7
SAXON HARBOR     0500   26      CALM  /  5 1022.7F
$$

LMZ867-665-643>646-200700-
LAKE MICHIGAN

STATION/POSITION TIME  TEMP    WIND        PRES    WAVE
                       AIR SEA DIR/SP/G            HT/PER
                 (UTC) (F)     (DEG/KT/KT) (MB)    (FT/S)
CHAMBERS ISLAND  0500   20     120/  1/  2 1024.7S
NORTHPORT PIER   0525   22     210/  2/  3 1024.7F
SISTER BAY       0343             CALM       N/A
ALGOMA LAKESHORE 0344          330/  5/  5   N/A
KEWAUNEE LAKESHO 0500   26      CALM  /  1 1023.9R
SHEBOYGAN LAKESH 0500   29 34  300/  6/  6 1025.7R
PORT WASHINGTON  0540   29     280/  3/  5 1025.4S
MILWAUKEE LAKESH 0500   29     230/  5/  6   N/A
KENOSHA   LAKESH 0500   28     290/  3/  3 1024.7F
$$

TC  - TEMPERATURE IN CELSIUS
VSB - VISIBILITY IN STATUTE MILES
WCI - WIND CHILL INDEX
HX  - HEAT INDEX



USA.gov is the U.S. government's official web portal to all federal, state and local government web resources and services.